Weather observations for the past three days for
Shirley, Brookhaven Airport
Imperial (Metric)
Date Time (edt) Wind (mph) Vis. (mi.) Weather Sky Cond. Temperature (ºF) Relative Humidity Wind Chill (°F) Heat Index (°F) Pressure Precipitation (in)
Air Dwpt 6 hour altimeter (in) sea level (mb) 1 hr 3 hr 6 hr
Max. Min.
21 08:56 W 3 10.00 Overcast OVC075 78.1 66.9 69% 80 30.03 1016.8
21 07:56 Calm 10.00 Mostly Cloudy SCT065 BKN100 75.9 66 75.9 68 72% 77 30.03 1016.7
21 06:56 Calm 10.00 Mostly Cloudy BKN065 70 66 87% 30.02 1016.5
21 05:56 Calm 10.00 Fair CLR 69.1 64 84% 30.01 1016.2
21 04:56 Calm 10.00 Mostly Cloudy BKN100 71.1 64 79% 30.01 1016.1
21 03:56 Calm 10.00 Mostly Cloudy BKN110 73.9 64.9 74% 30.01 1016.2
21 02:56 Calm 10.00 Mostly Cloudy BKN120 72 64.9 79% 30.02 1016.6
21 01:56 Calm 10.00 A Few Clouds FEW110 75 64.9 77 75 71% 77 30.03 1016.8
21 00:56 SW 7 10.00 Partly Cloudy SCT080 75.9 64 67% 78 30.04 1017.2
20 23:56 SW 6 10.00 Mostly Cloudy BKN120 77 64.9 66% 79 30.05 1017.4
20 22:56 SW 9 10.00 Fair CLR 77 64.9 66% 79 30.06 1017.7
20 21:56 SW 6 10.00 Fair CLR 77 64 64% 79 30.06 1017.9
20 20:56 SW 7 10.00 Fair CLR 77 63 62% 79 30.06 1017.9
20 19:56 SW 7 10.00 Fair CLR 77 63 82.9 77 62% 79 30.06 1017.8
20 18:56 SW 8 10.00 Fair CLR 78.1 64 62% 80 30.06 1017.6
20 17:56 SW 10 10.00 Fair CLR 79 64.9 62% 81 30.06 1017.8
20 16:56 SW 12 G 21 10.00 Fair CLR 79 64.9 62% 81 30.07 1018.1
20 15:56 SW 12 10.00 Fair CLR 81 64 57% 83 30.08 1018.3
20 14:56 S 10 10.00 Fair CLR 82 66 58% 84 30.09 1018.7
20 13:56 S 10 10.00 Fair CLR 81 66 82.9 75 61% 83 30.1 1019.0
20 12:56 S 9 10.00 Fair CLR 82 66.9 60% 85 30.11 1019.5
20 11:56 S 8 10.00 A Few Clouds FEW055 79 68 69% 81 30.12 1019.9
20 10:56 S 7 10.00 A Few Clouds FEW065 79 66.9 67% 81 30.12 1019.8
20 09:56 SW 5 10.00 Fair CLR 81 66 61% 83 30.12 1019.9
20 08:56 SW 3 10.00 Fair CLR 77 66.9 71% 79 30.13 1020.1
20 07:56 SW 5 10.00 Fair CLR 75 66 75 63 74% 76 30.13 1020.3
20 06:56 Calm 10.00 Fair CLR 68 64 87% 30.13 1020.2
20 05:56 Calm 10.00 Fair CLR 64.9 61 87% 30.12 1020.0
20 04:56 Calm 10.00 Fair CLR 64.9 61 87% 30.12 1019.9
20 03:56 SW 3 10.00 Fair CLR 68 62.1 81% 30.12 1019.7
20 02:56 Calm 10.00 Fair CLR 66.9 63 87% 30.12 1019.7
20 01:56 SW 5 10.00 Fair CLR 71.1 64 75 68 79% 30.13 1020.2
20 00:56 SW 3 10.00 Fair CLR 70 63 79% 30.14 1020.5
19 23:56 SW 5 10.00 Fair CLR 71.1 63 76% 30.14 1020.5
19 22:56 SW 3 10.00 Fair CLR 71.1 63 76% 30.13 1020.3
19 21:56 SW 7 10.00 Fair CLR 72 62.1 71% 30.13 1020.2
19 20:56 SW 3 10.00 Fair CLR 72 61 68% 30.12 1019.9
19 19:56 S 6 10.00 Fair CLR 75 62.1 82 75 64% 77 30.11 1019.5
19 18:56 S 8 10.00 Fair CLR 77 62.1 60% 79 30.09 1019.0
19 17:56 SW 7 10.00 Fair CLR 79 61 54% 80 30.09 1018.8
19 16:56 SW 9 10.00 Fair CLR 80.1 60.1 51% 81 30.09 1019.0
19 15:56 SW 9 10.00 Fair CLR 81 60.1 49% 82 30.1 1019.1
19 14:56 Calm 10.00 Partly Cloudy SCT055 82 59 46% 82 30.1 1019.1
19 13:56 Calm 10.00 A Few Clouds FEW055 82 55 82.9 72 40% 81 30.11 1019.3
19 12:56 Vrbl 5 10.00 Fair CLR 81 57 44% 81 30.11 1019.6
19 11:56 Vrbl 6 10.00 Fair CLR 80.1 57.9 47% 81 30.11 1019.5
19 10:56 N 10 10.00 Fair CLR 78.1 57.9 50% 79 30.11 1019.6
19 09:56 N 13 10.00 Fair CLR 75.9 55.9 50% 78 30.11 1019.5
19 08:56 N 13 10.00 Fair CLR 73.9 55.9 54% 30.11 1019.5
19 07:56 N 9 10.00 Fair CLR 72 59 72 66 64% 30.1 1019.0
19 06:56 N 7 10.00 Fair CLR 68 59 73% 30.07 1018.1
19 05:56 N 8 10.00 Fair CLR 66 57 73% 30.05 1017.5
19 04:56 N 9 10.00 Fair CLR 66.9 57 71% 30.03 1016.9
19 03:56 N 5 10.00 Fair CLR 66.9 55.9 68% 30.02 1016.5
19 02:56 N 9 10.00 Fair CLR 70 55.9 61% 30.02 1016.4
19 01:56 N 5 10.00 Fair CLR 70 57.9 81 69.1 66% 30.01 1016.1
19 00:56 N 7 10.00 Fair CLR 72 59 64% 30 1015.9
18 23:56 N 8 10.00 Fair CLR 72 62.1 71% 29.99 1015.4
18 22:56 Calm 10.00 Fair CLR 75 63 66% 77 29.98 1015.2
18 21:56 W 3 10.00 Fair CLR 73.9 64 71% 29.97 1014.8
18 20:56 SW 3 10.00 A Few Clouds FEW060 79 64 60% 81 29.95 1014.0
18 19:56 S 5 10.00 Fair CLR 81 64 88 81 57% 83 29.93 1013.4
18 18:56 W 5 10.00 Fair CLR 82.9 63 51% 84 29.9 1012.4
18 17:56 NW 7 10.00 Fair CLR 84 63 49% 85 29.9 1012.4
18 16:56 W 7 10.00 Fair CLR 86 62.1 45% 87 29.9 1012.3
18 15:56 NW 7 10.00 Fair CLR 86 61 43% 86 29.91 1012.7
18 14:56 Vrbl 3 10.00 Fair CLR 84.9 61 45% 85 29.92 1012.9
18 13:56 NW 7 10.00 Fair CLR 84.9 63 86 75.9 48% 86 29.9 1012.5
18 12:56 N 12 10.00 Fair CLR 84 64.9 53% 86 29.9 1012.4
18 11:56 N 9 10.00 Fair CLR 81 66 61% 83 29.89 1012.1
18 10:56 N 10 10.00 Fair CLR 79 66 65% 81 29.89 1012.2
18 09:56 N 9 10.00 Fair CLR 80.1 69.1 69% 83 29.88 1011.7
Date Time (edt) Wind (mph) Vis. (mi.) Weather Sky Cond. Air Dwpt Max. Min. Relative Humidity Wind Chill (°F) Heat Index (°F) altimeter (in) sea level (mb) 1 hr 3 hr 6 hr
6 hour
Temperature (ºF) Pressure Precipitation (in)